Theta_e
308 307 309 308 306 307 306 305 305 304 306 306 308 308 307 307 306 308 309 308 308 307 308 308 309 309 309 308 307 307 306 305 304 304 304 303 304 306 306 306 305 303 299 298
307 308 307 306 305 306 307 308 308 307 307 305 306 308 308 308 309 309 309 309 307 306 306 305 306 307 307 307 308 306 305 304 303 303 303 303 302 301 301 301 301 302 300 298
309 309 307 306 307 307 305 307 308 307 305 305 305 308 307 307 306 307 308 307 307 306 307 306 304 305 306 306 307 306 305 304 303 302 301 301 301 299 298 298 299 299 300 298
306 306 308 306 307 306 309 306 306 307 307 309 306 311 311 311 310 309 306 305 304 304 303 303 303 304 304 305 305 306 305 304 302 300 300 300 300 299 299 298 297 297 298 297
309 307 307 308 308 305 308 307 307 306 307 308 307 309 308 307 310 308 308 307 305 304 303 303 302 303 304 306 305 304 304 303 302 300 299 298 299 299 299 298 296 296 296 296
305 304 306 307 306 306 307 308 306 304 306 310 309 309 310 308 309 308 308 307 304 303 301 301 302 302 306 307 305 304 302 301 301 300 299 299 298 299 298 297 297 295 294 294
305 306 306 306 308 306 308 307 311 312 311 316 306 308 312 309 311 307 306 305 303 301 300 301 304 303 303 302 300 299 299 300 300 300 298 298 297 298 298 297 296 294 293 293
308 318 306 305 308 309 307 309 315 314 314 317 306 311 312 307 307 305 303 303 302 305 302 302 301 300 299 298 298 296 298 297 297 298 298 297 297 297 297 297 296 295 295 294
319 313 305 303 305 307 307 309 308 311 297 307 313 313 311 306 306 306 303 304 304 302 299 298 296 296 296 295 295 294 294 296 296 296 296 297 297 297 296 296 295 295 295 294
311 316 310 307 305 305 306 305 310 309 315 318 313 313 313 310 310 306 306 301 300 298 297 296 295 294 293 293 293 293 293 293 293 294 294 295 295 296 296 296 295 295 295 295
313 312 315 312 310 313 313 309 308 308 312 318 318 315 310 309 306 303 303 302 298 296 295 294 294 293 293 292 292 292 292 292 291 291 293 293 294 294 294 295 295 295 295 294
314 315 318 315 310 307 308 311 310 314 315 313 315 316 311 309 304 300 298 296 294 293 293 292 292 292 292 291 291 291 290 291 290 289 291 291 291 293 293 294 294 294 294 294
314 315 317 312 309 309 312 312 311 308 311 315 317 317 306 304 302 296 295 293 292 292 291 291 291 291 292 291 291 290 290 290 289 289 289 290 290 290 290 292 293 293 293 293
310 312 315 314 311 307 310 306 304 304 307 307 307 306 304 301 297 296 294 293 292 290 290 291 291 291 292 291 290 290 289 289 288 288 288 289 289 289 289 290 291 292 292 291
305 309 306 310 304 301 301 302 301 301 301 301 300 299 299 296 293 292 291 291 292 289 289 289 291 290 291 290 290 290 289 288 288 287 288 288 288 288 288 289 289 290 291 291
298 301 299 296 299 300 299 295 295 295 294 294 295 296 294 293 291 290 290 289 292 289 288 288 289 289 289 289 289 289 288 288 287 287 287 287 286 286 287 287 288 289 289 290
295 297 291 299 297 291 290 293 294 293 293 294 297 294 292 291 291 290 289 289 291 288 288 287 287 288 287 287 287 287 287 285 285 286 287 287 286 284 284 286 286 287 288 288
294 290 286 284 281 285 292 291 295 296 293 291 290 290 290 290 291 289 288 289 288 287 287 287 286 286 286 285 285 284 284 283 284 285 286 286 283 283 283 284 285 286 286 287
292 292 282 283 279 287 292 290 289 287 287 288 286 286 288 290 289 288 287 287 286 287 286 286 286 285 285 284 283 283 282 282 282 283 285 281 279 282 283 283 284 285 284 285
290 292 289 276 284 283 288 288 289 287 286 285 285 286 287 289 287 287 285 285 285 285 284 284 284 283 282 282 282 282 281 281 280 282 280 278 278 281 283 282 282 283 284 283
276 277 289 286 289 284 285 288 286 284 285 283 283 286 287 288 288 287 286 285 284 283 283 282 282 281 281 281 280 281 280 279 279 279 277 277 277 278 278 280 281 281 283 282
285 278 274 269 273 282 283 286 285 285 287 284 287 286 286 287 287 287 286 285 283 282 282 281 280 280 279 279 278 278 278 277 277 276 275 275 274 274 275 277 280 281 281 281
286 285 282 282 282 285 284 286 288 288 286 287 287 287 286 286 286 285 284 282 281 281 281 280 279 278 278 277 277 276 276 275 274 273 272 272 272 272 273 274 277 280 281 280
285 286 286 287 288 287 287 288 287 287 287 287 286 285 284 284 283 282 281 280 280 279 278 278 277 276 276 275 275 274 273 272 271 270 270 269 269 270 271 272 275 279 280 280
288 286 285 287 288 288 288 287 287 287 286 284 282 281 281 280 279 279 278 277 277 276 275 274 274 274 273 273 272 271 270 269 268 268 267 267 267 268 269 271 273 276 279 280
288 288 289 288 288 287 287 287 284 283 281 278 278 277 277 277 276 275 274 274 273 272 271 270 269 269 269 268 267 267 266 266 265 265 265 265 265 266 267 268 270 272 276 280
Wind_Speed
2 4 9 17 14 2 2 5 7 7 9 5 18 18 19 17 15 25 22 21 16 13 17 24 25 23 22 23 25 31 34 39 40 41 39 38 48 53 54 56 55 53 50 48
3 8 14 3 4 8 8 10 12 9 11 4 10 21 19 25 23 21 22 22 8 9 9 7 9 12 16 21 24 28 33 35 40 41 39 29 32 36 42 46 49 53 53 51
10 6 5 8 5 7 5 6 10 11 7 5 8 8 5 6 5 9 18 12 12 12 13 8 7 9 11 15 19 25 30 34 37 39 34 33 22 24 32 39 48 55 55 54
7 4 5 3 6 10 7 9 11 7 3 4 4 8 4 19 15 14 8 8 9 7 6 4 7 11 11 9 10 15 22 27 33 35 37 41 35 28 35 37 40 47 56 56
6 4 4 4 9 7 9 1 4 4 4 2 1 4 4 1 7 8 6 7 4 2 6 7 7 11 16 23 21 15 15 21 27 33 36 31 33 32 21 25 32 41 48 54
7 2 5 7 4 5 2 1 2 3 2 3 11 9 4 4 3 5 3 4 7 10 8 7 8 11 29 31 28 26 16 16 18 28 35 39 33 29 27 29 35 35 39 46
3 5 3 4 2 1 3 5 4 4 1 8 2 3 6 5 5 1 9 11 9 7 8 9 16 16 28 33 37 34 30 26 16 22 31 36 37 33 34 33 32 33 36 42
3 12 5 4 7 6 6 8 5 5 6 16 3 7 4 8 2 4 5 5 6 14 11 12 15 19 27 32 36 40 37 28 18 17 25 31 35 33 36 36 35 38 40 44
3 7 2 6 4 6 4 5 2 1 3 3 10 19 8 3 7 9 8 8 14 18 19 19 19 25 26 28 32 35 40 37 27 20 21 26 31 35 33 34 36 36 38 37
3 7 8 3 3 2 4 2 1 2 2 10 19 19 14 12 13 14 20 19 18 18 20 19 19 27 30 33 35 35 35 33 34 31 25 25 27 31 36 36 37 39 40 41
3 5 5 0 6 4 7 2 3 3 4 8 12 12 5 8 16 13 10 12 13 14 15 14 17 24 25 28 31 31 33 33 36 35 36 30 31 32 32 36 39 41 39 40
5 4 8 17 7 8 9 13 13 13 10 10 14 17 10 11 11 11 12 11 11 11 12 12 15 19 22 25 28 31 34 31 33 35 34 32 28 31 33 37 39 40 40 41
3 4 4 7 2 4 3 3 3 3 3 8 13 7 15 21 20 10 9 8 8 9 9 10 13 17 20 22 22 25 29 30 35 37 34 34 32 29 30 38 39 39 37 40
5 5 10 12 17 4 3 7 10 6 3 9 10 21 21 24 15 11 10 8 9 10 12 10 10 14 18 19 20 22 26 27 29 34 35 33 34 35 31 31 33 36 39 39
2 9 4 12 8 3 8 14 17 15 17 12 21 24 19 3 9 14 12 9 7 9 11 11 11 9 17 21 24 26 25 25 29 29 27 30 36 38 37 32 29 32 37 39
3 3 4 5 12 8 13 15 19 20 21 21 24 20 5 1 7 9 13 12 10 9 11 11 11 12 16 20 21 21 24 29 29 25 25 27 30 34 37 36 31 26 32 37
2 2 1 10 13 5 9 17 19 8 3 3 4 2 2 4 7 5 12 12 11 12 14 11 10 12 17 19 20 20 23 28 27 26 27 26 29 32 35 36 34 25 24 29
10 4 3 4 3 4 6 4 3 2 4 3 3 4 6 7 8 7 9 7 9 14 16 13 13 16 16 21 22 22 22 23 23 25 24 25 32 33 31 33 32 32 24 24
15 8 2 2 5 7 11 3 3 4 5 7 5 5 6 9 4 10 10 5 7 11 14 18 21 22 22 22 21 21 22 22 23 24 23 32 36 34 33 32 33 31 27 23
2 10 5 2 5 7 5 4 3 4 6 8 9 8 8 4 3 12 8 6 9 15 18 20 23 24 24 27 26 24 23 23 23 23 25 31 29 29 32 33 34 31 27 27
3 2 11 8 5 7 7 5 3 5 6 6 5 8 7 7 11 15 10 8 11 15 20 21 22 24 28 26 25 24 23 24 26 25 30 30 29 29 31 33 32 32 29 26
5 4 3 2 2 8 4 1 6 6 6 5 11 11 10 13 14 13 12 12 9 11 20 23 21 25 30 27 24 26 27 28 26 29 31 31 33 33 31 31 33 30 26 21
4 6 4 10 6 5 6 8 16 12 8 15 12 14 11 13 14 9 9 11 11 17 19 22 22 26 32 29 25 24 32 29 29 29 30 33 33 34 33 30 31 29 23 22
6 5 9 10 13 16 18 18 14 10 14 16 13 8 4 7 9 10 11 13 13 21 21 23 24 25 30 31 28 28 32 29 30 32 33 32 32 34 33 30 28 27 25 23
10 4 4 11 16 14 17 14 15 13 8 4 4 2 6 6 10 10 13 14 16 23 24 23 24 27 33 34 35 33 32 32 34 34 35 33 31 31 30 29 27 28 29 27
11 17 10 13 18 12 16 10 2 2 2 4 5 8 6 7 12 12 14 18 21 23 26 26 28 30 34 36 38 36 34 33 33 36 34 31 29 28 28 27 31 29 33 34
Wind_Direction
180 142 193 216 205 156 170 236 254 257 264 296 278 273 278 274 269 274 272 272 270 260 269 270 283 289 279 262 253 247 240 237 225 213 208 214 219 221 223 225 225 222 217 213
73 229 222 189 169 221 246 270 271 275 264 195 275 286 279 269 261 264 269 276 280 278 273 284 305 293 285 280 264 252 247 240 231 217 215 217 224 224 222 223 224 224 219 217
203 224 177 190 208 245 197 225 258 260 316 247 318 280 278 289 258 259 261 269 274 263 291 318 308 309 328 305 286 270 257 246 236 223 214 216 226 225 219 220 223 223 222 218
240 267 180 149 225 209 264 224 251 270 6 242 25 293 156 280 280 260 300 291 278 307 296 329 354 343 332 332 309 286 269 256 248 232 215 211 213 213 220 215 217 218 221 220
244 184 164 183 226 148 232 132 210 195 203 351 264 259 269 47 264 290 285 287 352 317 21 4 330 316 351 3 4 337 297 269 255 238 224 222 220 222 228 215 216 215 218 219
240 325 184 217 192 187 107 37 51 60 125 267 210 193 318 175 231 315 284 296 61 17 4 339 308 320 355 358 1 355 332 287 262 243 233 226 223 224 223 212 210 209 214 215
310 224 259 164 191 52 114 62 309 308 342 253 331 229 232 235 305 181 356 344 360 3 349 341 348 349 355 357 357 356 355 342 305 257 242 232 230 222 225 219 210 202 205 209
316 303 193 173 201 191 178 174 186 258 279 290 193 241 208 209 237 131 89 10 330 351 357 355 358 359 3 1 360 3 1 354 331 292 262 253 244 236 233 228 218 215 215 215
211 258 215 223 173 169 171 185 219 258 92 284 269 277 271 287 78 42 33 9 360 17 18 18 23 22 13 14 12 6 7 360 350 326 286 269 260 250 244 237 233 229 228 222
191 285 233 317 4 332 173 153 33 16 199 257 275 282 270 318 11 20 26 31 16 13 14 7 10 10 8 9 8 9 9 7 4 353 322 292 278 267 257 249 243 237 237 233
128 170 243 63 179 246 304 261 217 253 216 251 264 268 90 73 67 58 15 26 25 14 9 5 4 4 6 6 5 4 4 3 358 357 354 332 302 282 268 256 251 246 240 237
228 233 266 262 214 206 211 236 239 244 235 221 236 245 324 84 82 50 41 34 35 22 6 5 1 360 1 3 2 358 355 356 355 351 349 347 334 308 283 267 258 250 243 239
124 251 261 309 154 49 83 47 69 337 225 248 261 260 335 325 344 41 61 40 23 8 6 2 354 353 352 353 356 355 352 349 348 350 350 350 349 335 302 282 271 259 248 245
158 224 252 265 272 82 288 321 308 288 269 285 272 289 296 304 331 20 13 -0 359 354 355 352 350 342 339 342 343 347 344 346 344 347 345 347 349 344 330 302 280 269 261 243
347 267 269 259 290 336 271 265 268 265 260 262 276 273 279 35 347 329 327 335 338 346 349 344 334 329 335 336 336 341 338 338 341 341 339 339 343 342 340 332 306 280 266 256
355 298 343 290 295 283 285 279 266 267 261 259 258 270 54 7 314 317 320 327 321 322 336 336 325 324 329 324 326 332 332 330 330 333 334 333 342 339 336 333 328 303 274 257
219 221 81 273 301 331 285 260 267 258 192 224 259 106 235 262 289 299 308 311 307 315 324 324 312 318 320 319 325 325 324 328 327 329 329 332 337 332 330 328 328 321 288 264
237 206 153 246 42 268 280 29 85 176 126 149 151 194 222 249 269 268 283 269 296 314 314 308 302 301 300 305 310 316 317 323 325 326 327 332 332 325 325 323 323 324 310 274
221 225 253 194 206 306 302 218 154 132 256 194 194 235 253 261 285 279 252 244 273 281 290 289 292 291 294 298 305 313 316 322 324 321 324 328 327 320 321 321 319 318 311 291
198 216 180 99 197 219 243 226 179 122 279 202 200 226 243 243 236 278 240 243 263 271 282 290 296 302 301 303 310 310 309 313 314 314 317 318 316 312 312 311 310 309 307 293
30 16 214 230 256 289 248 224 169 82 265 225 206 258 247 253 253 272 255 256 257 274 284 291 295 293 294 299 306 297 299 298 304 305 312 310 310 306 306 303 301 301 303 299
179 166 204 87 59 282 200 336 145 226 276 250 285 276 260 267 271 266 261 274 281 279 289 294 294 292 294 297 297 292 292 298 298 305 304 305 305 303 302 299 296 296 293 283
274 189 199 194 210 217 219 228 280 279 250 279 280 280 277 268 273 266 282 287 288 286 285 291 287 287 291 294 291 284 289 300 299 297 294 297 297 295 295 295 297 289 282 267
258 191 238 274 254 253 263 268 272 266 272 277 282 284 287 268 286 297 292 289 293 294 295 299 296 292 291 295 294 289 296 299 298 292 291 292 292 293 291 288 284 277 269 267
243 168 223 252 259 267 266 261 265 276 282 340 349 342 322 310 299 301 293 294 297 298 303 303 298 295 293 298 296 296 297 299 293 290 289 289 286 284 284 281 280 279 267 256
241 249 242 254 260 256 269 282 49 326 9 19 342 322 316 324 303 308 296 302 304 304 310 307 301 297 295 297 295 296 295 293 290 288 288 286 286 284 281 281 286 276 272 265